Hagerstown, MD

12:11 PM EDT on October 17, 2019 (GMT -0400)
Hagerstown Regional-Henson

Weather History for KHGR - August, 2019

Change the Weather History Date:

Tuesday, August 13, 2019

  Actual Average Record
Temperature  
Mean Temperature 76 °F 74 °F  
Max Temperature 80 °F 84 °F 97 °F (2016)
Min Temperature 72 °F 64 °F 52 °F (2006)
Degree Days  
Heating Degree Days 0 0  
Month to date heating degree days 0 0  
Since 1 June heating degree days 5 18  
Since 1 July heating degree days 0 0  
Cooling Degree Days 11 9  
Month to date cooling degree days 154 122  
Year to date cooling degree days 1021 728  
Since 1 June cooling degree days 839 652  
Growing Degree Days 26 (Base 50)    
Moisture  
Dew Point 69 °F    
Average Humidity 73    
Maximum Humidity 84    
Minimum Humidity 62    
Precipitation  
Precipitation 0.18 in 0.10 in 0.70 in (2013)
Month to date precipitation 0.95 1.28  
Year to date precipitation 26.92 24.77  
Sea Level Pressure  
Sea Level Pressure 29.82 in    
Wind  
Wind Speed 4 mph (North)    
Max Wind Speed 9 mph    
Max Gust Speed 12 mph    
Visibility 7 miles    
Events Rain    
T = Trace of Precipitation, MM = Missing Value Source: NWS Daily Summary

Daily Weather History Graph

Daily Weather History Graph

Search for Another Location

Airport or City:

Astronomy

Aug. 13, 2019 Rise Set
Actual Time 6:20 AM EDT 8:09 PM EDT
Civil Twilight 5:51 AM EDT 8:38 PM EDT
Nautical Twilight 5:16 AM EDT 9:14 PM EDT
Astronomical Twilight 4:38 AM EDT 9:51 PM EDT
Moon 7:23 PM EDT (8/13) 4:21 AM EDT (8/13)
Length of Visible Light 14h 47m
Length of Day
13h 49m
Waxing Gibbous, 97% of the Moon is Illuminated
Aug 13
Waxing Gibbous
Aug 15
Full
Aug 23
Last Quarter
Aug 30
New
Sep 5
First Quarter

Hourly Weather History & Observations

Time (EDT) Temp. Heat Index Dew Point Humidity Pressure Visibility Wind Dir Wind Speed Gust Speed Precip Events Conditions
12:53 AM 80.1 °F 82.1 °F 66.0 °F 62% 29.88 in 10.0 mi South 5.8 mph - N/A   Clear
1:53 AM 79.0 °F - 66.0 °F 64% 29.86 in 10.0 mi SSW 5.8 mph - N/A   Partly Cloudy
2:53 AM 77.0 °F - 66.9 °F 71% 29.86 in 10.0 mi South 4.6 mph - N/A   Partly Cloudy
3:53 AM 77.0 °F - 66.9 °F 71% 29.85 in 10.0 mi SSE 3.5 mph - N/A   Mostly Cloudy
4:53 AM 75.9 °F - 66.9 °F 74% 29.84 in 10.0 mi SSE 3.5 mph - N/A   Overcast
5:53 AM 75.9 °F - 68.0 °F 76% 29.85 in 10.0 mi SSW 4.6 mph - 0.00 in   Overcast
6:53 AM 75.0 °F - 68.0 °F 79% 29.84 in 10.0 mi ENE 4.6 mph - N/A   Overcast
7:53 AM 73.9 °F - 68.0 °F 82% 29.85 in 9.0 mi ESE 6.9 mph - 0.00 in   Overcast
8:53 AM 73.9 °F - 68.0 °F 82% 29.84 in 9.0 mi West 4.6 mph - N/A   Overcast
9:53 AM 75.9 °F - 68.0 °F 76% 29.85 in 9.0 mi WNW 4.6 mph - N/A   Overcast
10:53 AM 77.0 °F - 68.0 °F 74% 29.85 in 9.0 mi Calm Calm - N/A   Overcast
11:53 AM 75.9 °F - 69.1 °F 79% 29.87 in 3.0 mi WSW 4.6 mph - 0.00 in Rain Light Rain
12:53 PM 75.0 °F - 68.0 °F 79% 29.86 in 3.0 mi Calm Calm - 0.04 in Rain Light Rain
1:53 PM 75.0 °F - 66.9 °F 76% 29.83 in 5.0 mi NNE 4.6 mph - 0.01 in Rain Light Rain
2:53 PM 77.0 °F - 69.1 °F 76% 29.82 in 9.0 mi NW 3.5 mph - 0.00 in   Mostly Cloudy
3:53 PM 77.0 °F - 69.1 °F 76% 29.81 in 7.0 mi NE 3.5 mph - N/A   Mostly Cloudy
4:43 PM 78.1 °F - 69.1 °F 74% 29.79 in 8.0 mi Calm Calm - N/A   Mostly Cloudy
4:53 PM 78.1 °F - 69.1 °F 74% 29.80 in 9.0 mi East 3.5 mph - N/A   Mostly Cloudy
5:53 PM 80.1 °F 83.2 °F 70.0 °F 71% 29.79 in 9.0 mi ENE 4.6 mph - N/A   Scattered Clouds
6:53 PM 78.1 °F - 70.0 °F 76% 29.79 in 9.0 mi NNE 5.8 mph - N/A   Mostly Cloudy
7:53 PM 77.0 °F - 69.1 °F 76% 29.79 in 10.0 mi NE 6.9 mph - N/A   Partly Cloudy
8:53 PM 75.0 °F - 70.0 °F 84% 29.81 in 9.0 mi North 4.6 mph - N/A   Overcast
9:43 PM 73.0 °F - 71.1 °F 93% 29.80 in 2.5 mi North 5.8 mph - 0.05 in Rain Light Rain
9:53 PM 73.0 °F - 71.1 °F 93% 29.82 in 2.5 mi North 8.1 mph - 0.05 in Rain Light Rain
10:47 PM 73.4 °F - 71.6 °F 94% 29.80 in 1.8 mi NNW 4.6 mph - 0.00 in   Overcast
10:53 PM 73.0 °F - 71.1 °F 93% 29.81 in 1.8 mi NW 5.8 mph - 0.00 in   Overcast
11:00 PM 73.0 °F - 70.0 °F 90% 29.80 in 2.0 mi NW 5.8 mph - N/A   Overcast
11:07 PM 72.0 °F - 70.0 °F 93% 29.80 in 1.5 mi NW 6.9 mph - N/A   Overcast
11:43 PM 72.0 °F - 70.0 °F 93% 29.79 in 2.0 mi Calm Calm - 0.00 in Rain Light Rain
11:51 PM 71.6 °F - 69.8 °F 94% 29.80 in 2.5 mi NNE 3.5 mph - 0.01 in Rain Light Rain
11:53 PM 73.0 °F - 70.0 °F 90% 29.81 in 2.5 mi North 3.5 mph - 0.01 in Rain Light Rain